CW0356 Weather Reports


Display with metric or nautical units.
time (UTC)temp
F
wind
direction
speed
MPH
gust
MPH
rain 1hr
in
rain 24hr
in
rain mn
in
humidity
%
barometer
mb
20180522160313 57 319 1.0 4.0 0.00 0.00 0.00 88 1014.2
20180522155316 57 338 1.0 3.0 0.00 0.00 0.00 89 1014.3
20180522154319 57 303 2.0 3.0 0.00 0.00 0.00 90 1014.3
20180522153319 56 279 1.0 3.0 0.00 0.00 0.00 93 1014.4
20180522152326 55 268 1.0 3.0 0.00 0.00 0.00 94 1014.3
20180522151330 53 254 1.0 2.0 0.00 0.00 0.00 96 1014.4
20180522145313 51 319 0.0 2.0 0.00 0.00 0.00 98 1014.4
20180522144314 49 319 1.0 2.0 0.00 0.00 0.00 98 1014.4
20180522143321 48 319 0.0 1.0 0.00 0.00 0.00 98 1014.5
20180522141328 47 319 1.0 2.0 0.00 0.00 0.00 97 1014.5
20180522140329 46 319 0.0 1.0 0.00 0.00 0.00 97 1014.5
20180522135314 45 319 0.0 0.0 0.00 0.00 0.00 97 1014.5
20180522134317 45 319 0.0 1.0 0.00 0.00 0.00 97 1014.4
20180522133319 44 319 0.0 1.0 0.00 0.00 0.00 96 1014.4
20180522132320 44 319 0.0 1.0 0.00 0.00 0.00 96 1014.3
20180522131326 44 319 0.0 0.0 0.00 0.00 0.00 96 1014.3
20180522130328 44 319 0.0 1.0 0.00 0.00 0.00 96 1014.3
20180522125331 44 319 0.0 1.0 0.00 0.00 0.00 96 1014.3
20180522124313 44 319 0.0 0.0 0.00 0.00 0.00 96 1014.3
20180522123314 44 319 0.0 0.0 0.00 0.00 0.00 95 1014.3
20180522122319 44 319 0.0 0.0 0.00 0.00 0.00 95 1014.4
20180522115329 45 319 0.0 1.0 0.00 0.00 0.00 95 1014.5
20180522114313 45 319 0.0 1.0 0.00 0.00 0.00 96 1014.7
20180522112321 45 319 0.0 1.0 0.00 0.00 0.00 95 1014.6
20180522111325 45 319 0.0 0.0 0.00 0.00 0.00 95 1014.6
20180522105316 45 319 0.0 0.0 0.00 0.00 0.00 95 1014.8
20180522104337 45 319 0.0 1.0 0.00 0.00 0.00 95 1014.9
20180522102325 45 319 0.0 0.0 0.00 0.00 0.00 95 1014.9
20180522095318 46 319 0.0 0.0 0.00 0.00 0.00 95 1015.0
20180522094318 46 319 0.0 0.0 0.00 0.00 0.00 94 1014.9
20180522093321 46 319 0.0 0.0 0.00 0.00 0.00 94 1014.9
20180522091329 47 319 0.0 0.0 0.00 0.00 0.00 94 1015.0
20180522090329 47 319 0.0 0.0 0.00 0.00 0.00 94 1015.0
20180522084314 47 319 0.0 0.0 0.00 0.00 0.00 93 1015.0
20180522083319 48 319 0.0 1.0 0.00 0.00 0.00 94 1015.1
20180522081328 48 319 1.0 1.0 0.00 0.00 0.00 94 1015.3
20180522080327 48 319 0.0 0.0 0.00 0.00 0.00 98 1015.3
20180522075328 48 319 0.0 1.0 0.00 0.00 0.00 94 1015.3
20180522074329 49 319 0.0 1.0 0.00 0.00 0.00 93 1015.4
20180522073314 49 319 0.0 0.0 0.00 0.00 0.00 93 1015.4
20180522071328 49 319 0.0 0.0 0.00 0.00 0.00 93 1015.5
20180522070329 50 319 0.0 0.0 0.00 0.00 0.00 93 1015.5
20180522065330 50 319 0.0 1.0 0.00 0.00 0.00 93 1015.6
20180522064317 50 319 0.0 1.0 0.00 0.00 0.00 93 1015.5
20180522063332 50 319 1.0 1.0 0.00 0.00 0.00 93 1015.5
20180522062319 50 319 0.0 0.0 0.00 0.00 0.00 92 1015.5
20180522061320 51 319 0.0 0.0 0.00 0.00 0.00 92 1015.6
20180522060324 51 319 0.0 0.0 0.00 0.00 0.00 92 1015.6
20180522055329 51 319 0.0 1.0 0.00 0.00 0.00 91 1015.7
20180522054311 51 319 0.0 1.0 0.00 0.00 0.00 91 1015.8
20180522053312 52 319 0.0 1.0 0.00 0.00 0.00 91 1015.9
20180522052314 52 319 0.0 1.0 0.00 0.00 0.00 91 1015.8
20180522051318 52 319 0.0 0.0 0.00 0.00 0.00 90 1015.8
20180522045325 53 319 0.0 1.0 0.00 0.00 0.00 88 1015.8
20180522044326 54 319 0.0 1.0 0.00 0.00 0.00 88 1015.7
20180522043330 54 319 0.0 0.0 0.00 0.00 0.00 88 1015.8
20180522042317 54 319 0.0 1.0 0.00 0.00 0.00 87 1015.7
20180522041317 55 319 0.0 2.0 0.00 0.00 0.00 87 1015.8
20180522035323 55 345 4.0 7.0 0.00 0.00 0.00 87 1015.8
20180522034325 55 9 4.0 9.0 0.00 0.00 0.00 86 1015.8
20180522033312 55 344 5.0 12.0 0.00 0.00 0.00 86 1015.8
20180522031315 56 347 5.0 11.0 0.00 0.00 0.00 85 1015.8
20180522030317 56 311 6.0 10.0 0.00 0.00 0.00 84 1015.8
20180522024326 56 289 8.0 13.0 0.00 0.00 0.00 82 1015.9
20180522023326 57 11 7.0 11.0 0.00 0.00 0.00 81 1015.9
20180522022329 58 5 6.0 12.0 0.00 0.00 0.00 79 1015.9
20180522021311 58 355 7.0 13.0 0.00 0.00 0.00 79 1015.8
20180522020315 58 340 6.0 11.0 0.00 0.00 0.00 78 1015.8
20180522015318 58 17 7.0 13.0 0.00 0.00 0.00 78 1015.7
20180522014319 59 341 8.0 14.0 0.00 0.00 0.00 77 1015.9
20180522013320 59 17 9.0 14.0 0.00 0.00 0.00 77 1016.0
20180522012325 60 350 8.0 14.0 0.00 0.00 0.00 76 1016.0
20180522011325 60 40 6.0 12.0 0.00 0.00 0.00 76 1016.1
20180522005327 60 360 5.0 15.0 0.00 0.00 0.00 75 1016.2
20180522004313 60 36 8.0 14.0 0.00 0.00 0.00 74 1016.3
20180522003316 60 26 5.0 14.0 0.00 0.00 0.00 75 1016.4
20180522002321 60 9 5.0 15.0 0.00 0.00 0.00 75 1016.5
20180522000329 61 318 5.0 16.0 0.00 0.00 0.00 74 1016.7
20180521235313 61 288 8.0 11.0 0.00 0.00 0.00 73 1016.8
20180521234316 61 38 6.0 11.0 0.00 0.00 0.00 74 1016.9
20180521231325 61 130 5.0 13.0 0.00 0.00 0.00 75 1017.2
20180521230324 61 321 6.0 14.0 0.00 0.00 0.00 74 1017.4
20180521225311 61 344 5.0 12.0 0.00 0.00 0.00 75 1017.3
20180521223319 61 311 6.0 12.0 0.00 0.00 0.00 76 1017.6
20180521222318 61 355 7.0 16.0 0.00 0.00 0.00 75 1017.6
20180521220328 61 329 8.0 14.0 0.00 0.00 0.00 75 1017.5
20180521215329 61 18 5.0 14.0 0.00 0.00 0.00 76 1017.6
20180521214329 61 5 6.0 13.0 0.00 0.00 0.00 75 1017.6
20180521213314 62 200 7.0 11.0 0.00 0.00 0.00 74 1017.7
20180521211326 61 302 6.0 14.0 0.00 0.00 0.00 75 1017.5
20180521210325 61 293 4.0 12.0 0.00 0.00 0.00 75 1017.7
20180521205326 61 9 5.0 10.0 0.00 0.00 0.00 76 1017.8
20180521204313 61 307 5.0 10.0 0.00 0.00 0.00 75 1017.8
20180521203317 61 355 3.0 11.0 0.00 0.00 0.00 75 1017.9
20180521202318 61 9 2.0 8.0 0.00 0.00 0.00 77 1017.9
20180521201320 61 306 4.0 8.0 0.00 0.00 0.00 76 1017.9
20180521200319 61 24 4.0 8.0 0.00 0.00 0.00 77 1017.9
20180521195326 60 298 4.0 7.0 0.00 0.00 0.00 76 1018.1
20180521194328 60 320 4.0 9.0 0.00 0.00 0.00 76 1018.2
20180521193329 59 282 4.0 8.0 0.00 0.00 0.00 78 1018.3
20180521192314 59 325 4.0 10.0 0.00 0.00 0.00 79 1018.5
20180521190329 58 24 6.0 9.0 0.00 0.00 0.00 80 1018.5
20180521182328 57 329 3.0 7.0 0.00 0.00 0.00 81 1018.8
20180521181328 57 355 3.0 6.0 0.00 0.00 0.00 82 1018.8
20180521180329 57 5 3.0 6.0 0.00 0.00 0.00 83 1018.8
20180521175314 56 315 4.0 9.0 0.00 0.00 0.00 83 1018.9
20180521174315 56 325 3.0 7.0 0.00 0.00 0.00 84 1018.9
20180521173316 56 5 4.0 8.0 0.00 0.00 0.00 83 1018.8
20180521170329 56 355 3.0 9.0 0.00 0.00 0.00 83 1018.8
20180521165312 56 224 6.0 8.0 0.00 0.00 0.00 83 1018.8
20180521164315 56 223 4.0 7.0 0.00 0.00 0.00 83 1018.8
20180521163317 56 351 2.0 6.0 0.00 0.00 0.00 83 1018.8
20180521162324 56 27 5.0 8.0 0.00 0.00 0.00 82 1018.7